Temperature
20 20 19 19 18 18 20 20 21 21 20 19 19 19 19 20 20 19 19 20 20 20 20 19 19 19 20 20 20 20 20 19 19 19 19 19 19 19 19 19 19 19 19 18 18 18 18 18 18
20 20 19 19 19 19 20 21 21 21 20 19 19 20 20 20 19 19 19 20 20 20 20 19 19 19 20 20 20 20 19 19 19 19 19 19 19 19 19 19 18 18 18 18 18 18 18 18 18
20 19 19 18 19 19 21 21 21 21 20 20 19 19 20 19 19 19 19 19 20 20 20 19 19 19 19 20 20 19 19 19 19 19 19 19 19 18 18 18 18 18 18 18 18 18 18 18 17
20 19 19 18 20 20 21 21 21 21 20 20 20 19 19 20 20 20 20 20 20 20 19 19 19 19 19 19 19 19 19 19 19 19 19 19 18 18 18 18 18 18 18 18 18 18 18 17 17
20 19 18 18 19 20 21 21 21 21 20 20 20 19 19 20 20 20 20 20 20 20 19 19 19 19 19 19 19 19 19 19 19 19 19 18 18 18 18 18 18 18 18 18 18 18 18 17 17
20 18 18 18 20 21 21 21 21 21 20 20 20 19 19 19 20 20 20 19 19 20 19 19 19 19 19 19 19 19 19 19 19 18 18 18 18 18 18 18 18 18 17 17 17 17 17 17 17
19 17 18 19 20 21 21 21 20 20 19 19 19 19 18 18 19 20 19 19 19 19 19 19 19 19 19 19 19 19 19 19 18 18 18 18 18 18 18 17 18 18 17 17 17 17 17 17 17
20 17 19 19 20 21 21 20 20 19 19 19 20 18 18 18 19 19 19 19 19 19 19 19 19 19 19 19 18 18 18 18 18 18 18 18 18 18 17 17 17 17 17 17 17 17 17 17 17
21 17 18 19 21 21 20 20 20 19 19 19 19 19 19 19 19 19 19 19 19 19 19 19 19 19 19 18 18 18 18 18 18 18 18 17 17 17 17 17 17 17 17 17 17 17 17 17 17
20 17 19 20 21 21 20 20 19 19 18 18 18 18 19 19 19 19 19 18 19 19 18 18 18 18 18 18 18 18 18 18 18 18 17 17 17 17 17 17 17 17 17 17 17 17 17 17 17
20 19 20 21 22 22 20 20 19 19 18 18 18 18 18 18 18 19 19 19 19 19 19 18 18 18 18 18 18 18 18 18 18 17 17 17 17 17 17 17 17 17 17 17 17 17 17 17 17
20 20 21 22 22 21 20 19 19 18 18 19 19 19 18 18 18 19 19 19 19 19 18 18 18 18 18 18 18 18 18 17 17 17 17 17 17 17 17 17 17 16 16 16 16 16 16 16 16
21 21 22 21 21 20 20 19 18 18 18 19 19 18 18 18 18 18 19 19 19 19 18 18 18 18 18 18 18 17 17 17 17 17 17 17 17 17 17 16 16 16 16 16 16 16 16 16 16
22 22 21 21 20 20 19 18 18 18 18 18 18 18 18 18 18 18 18 19 19 19 18 18 18 18 18 18 18 17 17 17 17 17 17 16 16 16 16 16 16 16 15 15 15 15 15 16 16
22 20 20 20 20 19 19 19 18 18 18 18 18 18 18 18 18 18 19 19 19 19 19 18 18 18 18 18 17 17 17 17 17 16 16 16 16 16 16 15 15 15 15 15 15 15 15 15 15
21 20 20 20 20 19 19 19 18 18 18 18 18 17 18 18 18 18 18 18 18 18 18 18 18 18 18 17 17 17 17 17 16 16 16 16 16 15 15 15 15 15 14 14 14 15 15 15 15
20 20 21 21 20 20 19 19 18 18 17 17 17 17 17 17 18 18 18 18 18 18 18 18 18 18 18 17 17 17 17 16 16 16 16 15 15 15 14 14 14 14 14 14 14 14 14 14 14
21 21 21 21 20 19 18 18 17 17 17 17 17 17 17 18 18 18 18 18 18 18 18 18 18 18 18 17 17 17 16 16 16 15 15 15 15 14 14 14 14 14 14 14 14 14 14 14 14
22 21 21 21 20 19 18 18 17 17 17 17 17 17 18 18 18 18 18 18 18 18 18 18 18 18 18 17 17 17 16 16 16 15 15 15 14 14 14 14 14 13 13 13 13 13 13 14 14
22 21 21 20 20 19 18 18 18 17 17 17 17 17 18 18 18 18 18 18 18 18 18 18 18 18 18 17 17 17 16 16 16 15 15 14 14 14 14 13 13 13 13 13 13 13 13 13 13
22 21 21 20 19 18 18 18 18 17 17 17 17 18 18 18 18 18 17 18 18 18 18 18 18 18 18 17 17 17 16 16 15 15 15 14 14 14 13 13 13 13 13 13 13 13 13 13 13
22 22 21 20 19 17 18 17 18 17 17 17 17 17 17 18 18 18 18 17 18 18 18 17 17 17 17 17 17 17 17 16 16 15 15 14 14 14 13 13 13 13 13 13 13 13 13 13 12
22 20 19 19 18 17 17 17 17 17 17 17 17 18 18 18 18 18 18 18 18 18 18 18 17 17 17 17 17 17 16 16 16 15 15 15 14 14 13 13 13 12 12 12 12 12 12 12 12
20 19 18 16 16 18 18 17 18 17 17 18 17 18 18 18 18 18 19 18 18 18 18 18 17 18 18 18 17 17 17 16 16 15 15 15 14 14 13 13 13 12 12 12 12 12 12 12 12
21 19 18 19 17 18 17 17 17 18 18 18 18 19 19 19 19 19 19 19 19 18 18 18 18 18 18 18 17 17 17 16 16 15 15 15 14 14 14 13 13 13 12 12 12 12 12 12 11
20 20 19 20 19 18 18 18 18 19 20 20 20 20 20 20 20 20 20 19 19 19 19 19 18 18 18 18 18 17 17 16 16 16 15 15 15 14 14 13 13 13 13 12 12 12 12 12 11
21 19 18 17 18 18 18 18 19 20 19 18 19 19 20 20 20 20 20 20 20 20 19 19 19 19 19 18 18 17 17 16 16 16 15 15 15 14 14 14 13 13 13 13 12 12 12 12 11
21 17 16 17 18 19 19 19 19 20 20 19 18 19 21 21 21 21 21 21 21 20 20 20 20 19 19 19 18 18 17 17 16 16 16 15 15 15 14 14 14 13 13 13 13 12 12 12 12
20 19 16 15 16 18 19 19 19 19 19 19 19 21 22 22 22 22 22 21 21 21 21 20 20 20 19 19 19 18 17 17 16 16 16 15 15 15 15 14 14 14 13 13 13 13 12 12 12
21 20 17 18 18 16 17 18 20 19 19 19 20 22 23 23 23 23 22 22 22 21 21 21 20 20 20 19 19 18 18 17 17 17 16 16 16 16 15 15 14 14 14 13 13 13 13 12 12
Wind_Speed
8 5 1 1 3 3 1 2 3 4 3 2 3 2 1 2 2 3 1 8 14 13 15 17 18 18 18 18 18 17 17 16 15 15 14 13 12 12 11 10 10 9 9 9 9 9 9 9 9
5 2 1 2 3 2 3 3 4 4 5 5 3 2 1 1 1 3 5 8 14 13 14 16 18 17 17 17 17 16 16 15 14 13 13 12 11 10 10 9 9 8 8 8 8 8 8 8 8
4 1 2 3 2 2 3 3 4 4 6 5 4 2 2 1 3 4 6 11 11 10 13 16 18 17 17 16 16 15 15 14 13 12 12 11 10 9 9 8 8 7 7 7 7 7 7 7 7
3 3 3 3 2 4 4 4 5 6 3 3 4 3 2 1 4 6 12 12 12 9 12 16 18 17 16 16 15 14 14 13 12 11 10 10 9 8 7 7 6 6 5 6 6 6 6 6 6
3 4 4 2 4 3 3 2 5 5 4 4 5 4 2 1 9 15 14 13 12 9 11 15 17 17 16 16 15 14 14 12 12 11 10 9 8 7 6 6 5 4 4 4 4 4 4 4 4
4 4 3 2 4 3 2 1 2 3 3 3 4 4 2 4 11 14 13 11 10 10 9 13 17 17 16 16 15 14 13 12 11 10 9 8 7 6 5 5 5 4 3 3 3 3 3 2 2
4 4 2 3 3 3 2 0 1 2 3 3 2 4 2 5 8 11 11 10 8 8 8 9 12 14 15 15 14 14 12 11 10 9 8 7 6 6 5 5 4 4 4 3 3 3 3 2 1
4 4 1 3 4 5 2 1 1 2 2 1 2 5 5 7 11 11 10 9 8 7 6 6 8 9 10 11 13 13 12 11 9 8 7 6 5 4 4 4 4 5 4 4 4 3 3 2 2
4 3 3 5 5 5 4 3 2 1 1 1 0 1 5 15 15 13 11 8 7 7 5 5 6 7 8 9 10 11 10 9 7 6 6 5 3 2 1 2 3 4 4 4 4 3 3 2 1
4 3 7 6 5 5 5 4 4 2 2 1 1 3 12 15 14 14 13 12 10 9 6 5 5 6 7 7 8 8 7 8 7 6 6 5 4 3 2 1 1 0 1 1 1 2 1 1 1
6 7 5 5 5 4 5 3 3 4 3 4 6 10 13 14 12 13 13 12 11 9 8 6 5 6 5 5 7 7 8 8 8 8 8 8 7 6 5 5 4 4 3 3 3 2 2 1 1
5 6 5 4 1 3 5 4 2 3 3 1 5 11 14 13 13 12 12 11 10 9 8 6 6 5 5 6 6 7 7 7 7 8 8 7 6 5 5 4 4 4 3 3 3 3 3 2 2
5 4 2 2 1 2 4 2 1 2 0 3 6 8 11 10 10 10 9 8 8 8 7 7 7 6 5 5 6 7 6 7 8 8 7 8 6 4 4 4 5 4 4 3 3 3 3 3 3
3 1 1 1 2 2 3 1 1 2 2 4 6 7 7 9 8 7 7 8 8 9 8 7 7 7 7 5 5 6 8 9 8 7 7 8 7 5 4 4 5 5 4 4 4 3 3 3 2
1 2 3 1 1 1 3 1 2 2 4 5 5 6 7 7 8 8 8 8 8 8 8 7 8 7 7 6 6 7 8 9 8 7 8 8 8 7 6 4 4 4 5 6 6 5 4 3 3
2 2 3 4 2 3 4 5 2 4 5 4 3 4 5 5 6 7 7 7 7 8 8 8 9 8 8 6 7 7 8 8 7 7 7 8 8 8 7 4 4 5 6 6 4 3 3 3 3
3 2 4 4 3 3 4 5 2 2 4 4 3 4 5 6 5 6 8 8 8 8 8 7 8 9 8 7 6 7 7 6 6 7 7 7 7 7 7 5 4 6 6 4 3 3 2 3 3
6 5 5 4 2 3 3 4 2 3 4 4 4 4 5 7 7 7 8 7 7 6 6 7 8 8 8 6 6 5 4 3 4 4 5 6 6 7 7 5 5 5 4 4 3 4 4 2 2
5 5 6 4 0 2 3 3 3 3 3 4 5 6 7 7 6 7 9 9 8 7 7 7 8 7 7 5 5 4 3 2 2 2 4 5 6 6 6 5 4 4 4 3 3 2 4 5 3
5 4 4 2 2 1 2 3 3 4 5 5 6 7 7 5 5 6 8 9 9 8 7 7 8 8 7 5 4 3 4 3 2 2 3 4 5 6 5 5 3 3 3 4 4 3 2 3 4
3 4 4 2 2 4 3 4 2 2 2 3 4 5 6 8 9 9 10 10 10 10 10 9 8 8 7 6 5 5 4 3 2 1 2 3 5 5 5 6 4 3 3 3 3 3 3 2 3
4 3 3 4 3 3 4 3 5 3 3 5 6 5 6 7 8 9 10 10 11 10 9 8 8 8 7 7 7 7 5 4 5 3 3 3 4 5 6 6 5 4 2 3 2 2 2 2 2
3 4 5 4 4 3 4 1 7 1 4 7 8 8 7 8 9 10 10 11 11 10 10 8 8 7 7 7 8 7 5 4 3 2 3 3 2 4 5 7 6 4 3 3 2 2 2 2 2
6 6 6 5 5 3 2 0 6 4 6 5 7 9 9 9 9 9 8 8 8 8 8 8 8 7 7 8 7 8 8 7 5 4 4 3 2 2 4 6 6 5 4 3 3 2 2 2 2
4 5 5 6 5 4 2 2 8 7 6 7 8 10 9 8 9 9 9 10 10 10 10 9 9 9 8 8 8 8 9 9 8 6 6 5 3 3 4 5 5 4 5 5 4 3 2 3 2
4 7 6 3 4 5 2 4 7 5 4 5 6 7 8 8 9 10 11 11 11 12 11 11 11 10 9 9 9 8 8 7 6 6 6 6 5 5 4 5 6 6 6 5 4 3 3 3 3
6 3 5 6 2 2 6 7 8 1 1 3 5 7 9 10 11 11 11 11 12 12 13 13 12 11 10 10 9 8 9 8 8 7 6 5 5 4 5 5 5 6 6 5 4 3 4 3 4
4 8 6 5 3 3 6 5 5 5 3 4 6 8 10 9 10 11 11 12 12 12 11 10 11 11 10 10 10 9 9 9 8 7 7 7 6 5 6 6 6 6 5 5 5 4 4 4 4
3 4 5 5 5 5 3 7 6 7 7 8 9 9 10 11 12 12 11 11 10 9 9 10 10 10 9 10 10 10 9 9 8 8 8 8 7 7 7 7 7 7 6 6 5 6 5 6 5
3 6 7 4 4 5 4 8 5 6 6 7 9 9 8 10 10 10 10 9 9 10 10 11 11 11 11 11 10 11 9 9 9 9 9 8 8 8 8 7 7 7 7 7 7 7 7 7 7
Wind_Direction
152 145 122 58 53 47 299 215 168 173 161 162 141 147 232 268 243 273 110 137 134 139 148 150 147 143 139 136 133 131 130 129 128 129 129 130 130 130 129 128 127 124 120 118 114 110 108 105 104
141 148 68 54 74 33 280 205 184 183 173 164 164 134 55 321 98 117 133 140 137 140 144 150 149 146 142 138 136 134 134 133 133 133 133 134 135 136 135 132 129 127 125 122 118 115 112 108 105
157 156 84 67 91 198 255 214 183 163 168 171 159 133 139 188 140 141 145 139 129 132 141 152 152 149 146 142 139 139 138 138 139 139 140 140 142 142 140 139 135 133 131 127 123 120 116 113 106
131 62 56 64 274 245 244 248 180 161 157 167 150 131 142 144 138 138 137 137 130 127 141 153 153 151 149 147 145 143 143 144 144 145 147 148 149 149 147 147 145 143 140 135 130 126 123 121 114
72 82 58 6 279 269 274 241 178 172 167 164 153 142 135 35 121 131 136 139 137 133 142 151 153 154 153 152 150 149 149 150 151 153 155 156 157 158 159 160 159 156 156 149 143 142 138 133 125
65 69 77 294 282 273 274 275 173 160 156 156 154 138 103 122 129 134 135 135 140 139 141 149 153 154 155 155 155 155 154 156 158 160 163 164 165 168 173 174 177 181 181 177 168 165 160 153 144
107 103 175 243 268 267 241 185 180 172 163 176 159 126 110 132 132 128 129 130 133 135 134 138 150 155 158 159 159 158 158 159 161 164 167 171 176 181 191 195 198 204 208 208 207 204 203 198 197
137 108 266 255 238 250 201 176 202 163 192 165 149 152 161 156 134 122 121 125 132 131 128 128 138 147 153 159 161 159 159 161 162 166 170 173 176 181 192 204 215 221 225 226 227 228 233 233 233
113 80 244 235 220 233 185 181 194 152 160 152 318 184 151 142 137 131 134 135 143 145 132 127 132 139 147 155 160 157 154 152 148 146 148 143 130 124 157 215 222 230 235 232 235 247 252 255 256
123 177 233 226 212 212 190 194 186 174 185 187 133 123 130 140 148 150 156 158 160 164 160 144 141 143 145 152 140 130 124 121 118 113 107 99 89 77 72 58 137 215 278 245 248 259 273 297 336
175 209 245 254 231 198 180 189 170 164 214 217 177 149 147 151 159 162 165 166 170 168 166 159 150 146 144 131 127 114 111 110 105 102 103 99 84 68 59 53 45 49 55 48 32 38 31 27 23
194 244 244 273 259 164 169 161 160 186 227 215 151 149 153 161 169 170 169 169 170 165 169 162 157 148 144 131 125 118 114 110 104 100 102 99 85 66 54 50 44 51 58 57 52 58 53 44 29
217 263 275 284 32 135 128 136 145 221 266 107 130 142 159 163 174 176 170 168 163 165 167 166 162 154 145 133 130 123 120 119 118 110 103 102 94 78 62 52 49 51 64 70 65 65 62 47 36
230 234 317 359 65 83 121 102 73 242 116 120 134 148 162 158 164 166 171 172 166 170 168 163 161 156 144 135 129 133 133 129 120 113 110 104 101 94 80 62 53 51 64 76 81 75 68 51 40
83 38 342 326 96 120 101 303 227 166 132 133 139 146 158 163 164 170 176 178 173 171 160 163 160 150 143 139 138 138 139 133 124 121 115 107 102 97 90 75 58 49 68 82 79 66 58 49 37
57 55 305 265 166 162 139 257 232 130 138 145 140 142 153 168 176 175 170 170 166 161 158 164 158 145 143 141 134 136 138 133 129 128 119 112 107 103 92 77 59 58 72 75 75 59 54 36 24
23 303 274 282 181 163 180 250 254 143 153 171 172 174 175 182 182 169 166 167 165 161 157 157 144 146 146 136 128 129 130 130 135 133 124 120 113 106 95 81 67 72 71 61 70 58 58 35 9
264 267 268 265 224 161 205 257 278 170 177 201 189 185 196 198 195 176 167 162 158 154 152 147 139 141 133 121 109 100 101 109 127 133 136 132 123 113 102 88 74 75 74 60 62 68 51 39 357
241 242 264 267 177 155 239 262 242 187 200 214 206 198 209 204 190 171 164 157 155 155 154 154 147 147 141 137 137 138 148 144 135 160 157 148 140 128 113 101 83 78 78 71 72 77 53 30 5
220 247 262 312 35 81 320 294 233 199 211 216 209 203 201 186 163 160 156 158 163 160 163 163 164 164 165 156 149 143 135 138 143 152 160 170 163 150 133 122 112 100 91 73 61 70 75 32 25
229 215 229 195 66 35 9 339 285 251 222 224 223 209 197 182 179 176 170 170 167 171 174 178 179 176 168 149 122 102 85 78 97 153 187 197 186 174 157 148 137 124 111 102 83 82 94 74 32
253 254 162 123 100 351 27 316 292 259 265 237 229 215 204 189 180 181 175 177 180 182 179 179 179 176 168 157 154 152 158 172 194 187 191 192 189 187 179 168 159 149 136 131 116 99 97 106 64
180 67 83 86 105 36 21 14 294 297 256 242 227 218 207 196 188 188 186 184 184 179 180 181 177 179 174 170 168 160 162 170 160 156 177 189 199 203 197 184 174 167 162 158 140 123 114 114 124
123 76 61 57 64 9 315 72 289 246 228 228 214 213 209 199 195 193 187 176 179 178 179 179 179 190 184 178 175 175 173 168 163 176 187 197 207 218 207 191 185 183 179 179 175 165 152 151 145
85 83 22 358 5 279 265 235 256 252 229 208 199 202 203 198 193 193 188 183 186 186 188 186 187 198 191 185 187 188 182 176 182 186 192 191 196 207 209 191 189 193 198 193 184 183 190 181 179
178 141 152 221 255 290 311 258 259 262 244 204 188 185 188 194 197 197 197 193 194 196 194 192 196 202 193 192 197 191 184 182 190 191 189 195 200 206 200 195 200 204 202 198 189 195 206 198 205
140 151 151 132 140 313 297 292 304 319 142 177 180 181 193 199 200 202 200 199 197 198 200 198 199 203 199 198 194 192 190 190 195 194 192 196 202 206 200 198 202 208 207 203 192 209 220 210 220
121 139 101 115 140 287 304 296 269 272 223 202 198 202 208 202 202 205 205 204 203 204 203 197 199 204 203 197 196 201 198 198 195 187 194 200 204 203 196 201 207 212 213 208 202 218 225 221 231
109 96 104 111 146 160 268 279 233 229 220 209 215 214 209 204 205 206 208 207 203 200 198 198 201 203 201 199 199 199 200 197 191 194 202 202 202 200 203 206 209 214 218 213 210 224 227 230 241
166 165 149 151 203 174 190 267 270 241 233 218 221 220 216 211 210 208 205 199 197 200 201 203 203 206 208 201 196 201 198 191 195 205 208 203 205 207 209 210 213 220 223 218 217 229 230 229 240
Height
1515 1516 1517 1518 1520 1526 1527 1521 1516 1516 1515 1515 1516 1518 1520 1521 1523 1526 1520 1519 1523 1527 1531 1535 1539 1542 1544 1546 1547 1549 1550 1551 1552 1553 1553 1554 1555 1555 1556 1556 1557 1557 1557 1557 1557 1558 1558 1558 1558
1515 1516 1518 1518 1523 1533 1528 1517 1515 1513 1512 1513 1514 1514 1516 1518 1518 1517 1517 1520 1524 1527 1531 1535 1539 1542 1545 1547 1548 1550 1551 1552 1553 1554 1555 1555 1556 1557 1557 1558 1558 1558 1559 1559 1559 1559 1560 1560 1560
1515 1517 1519 1520 1525 1530 1523 1513 1512 1511 1511 1512 1512 1513 1514 1516 1515 1516 1518 1521 1525 1528 1532 1536 1540 1543 1545 1547 1549 1551 1552 1553 1554 1555 1556 1557 1557 1558 1559 1559 1560 1560 1560 1560 1561 1561 1561 1562 1562
1516 1518 1519 1523 1524 1519 1513 1509 1508 1509 1510 1510 1511 1513 1513 1513 1514 1515 1518 1523 1526 1529 1533 1537 1540 1543 1546 1548 1550 1551 1553 1554 1555 1556 1557 1558 1558 1559 1560 1560 1561 1561 1561 1562 1562 1562 1563 1563 1564
1516 1518 1523 1527 1523 1515 1509 1507 1507 1508 1509 1509 1510 1511 1512 1513 1513 1515 1519 1524 1528 1531 1534 1538 1541 1544 1546 1549 1551 1552 1553 1555 1556 1557 1558 1558 1559 1560 1561 1561 1562 1562 1563 1563 1563 1563 1564 1565 1565
1517 1518 1529 1531 1522 1513 1509 1508 1507 1507 1508 1509 1509 1510 1511 1512 1514 1516 1520 1525 1529 1532 1535 1538 1541 1544 1547 1549 1551 1552 1554 1555 1556 1557 1558 1559 1560 1560 1561 1562 1562 1563 1563 1563 1564 1564 1565 1565 1566
1518 1522 1527 1525 1521 1514 1509 1507 1507 1507 1508 1508 1508 1510 1511 1513 1515 1518 1521 1526 1530 1533 1536 1539 1542 1545 1547 1549 1551 1553 1554 1555 1557 1558 1558 1559 1560 1560 1561 1562 1562 1563 1563 1564 1564 1564 1565 1566 1566
1517 1522 1524 1524 1520 1514 1508 1507 1507 1507 1507 1507 1508 1509 1510 1513 1515 1519 1523 1527 1530 1534 1537 1539 1542 1545 1547 1549 1551 1553 1554 1556 1557 1558 1559 1559 1560 1561 1561 1562 1562 1562 1563 1563 1564 1564 1565 1566 1566
1517 1525 1528 1521 1515 1509 1506 1507 1507 1506 1506 1507 1507 1508 1508 1511 1514 1518 1522 1527 1530 1534 1537 1540 1542 1545 1547 1549 1551 1553 1554 1556 1557 1558 1559 1560 1560 1560 1561 1561 1561 1562 1562 1563 1563 1563 1564 1565 1565
1516 1525 1519 1509 1506 1504 1504 1505 1505 1506 1507 1507 1507 1508 1509 1511 1514 1517 1520 1524 1528 1533 1537 1540 1542 1545 1547 1549 1551 1553 1554 1555 1557 1558 1559 1560 1560 1560 1560 1560 1560 1561 1561 1562 1562 1562 1563 1564 1565
1513 1515 1507 1503 1502 1501 1502 1504 1505 1506 1507 1505 1505 1507 1509 1511 1514 1517 1519 1523 1527 1532 1536 1539 1542 1545 1547 1549 1551 1553 1554 1555 1556 1557 1558 1559 1559 1559 1559 1559 1559 1559 1560 1560 1561 1561 1562 1562 1563
1510 1506 1505 1502 1501 1501 1501 1503 1505 1505 1505 1504 1505 1507 1508 1511 1515 1517 1520 1524 1528 1532 1535 1539 1542 1544 1547 1549 1550 1553 1554 1555 1556 1557 1558 1558 1558 1558 1557 1558 1558 1558 1558 1559 1559 1560 1560 1561 1562
1507 1504 1503 1501 1500 1501 1502 1503 1504 1504 1504 1504 1505 1507 1510 1512 1515 1518 1521 1525 1528 1531 1535 1538 1541 1543 1546 1548 1550 1552 1554 1555 1556 1557 1557 1557 1557 1556 1556 1556 1556 1557 1557 1558 1558 1558 1559 1559 1560
1504 1503 1503 1501 1501 1502 1503 1504 1505 1504 1504 1505 1505 1507 1510 1513 1516 1519 1522 1525 1528 1531 1534 1537 1540 1543 1546 1548 1550 1552 1553 1555 1555 1556 1556 1556 1556 1555 1555 1555 1555 1555 1556 1557 1557 1557 1558 1558 1558
1504 1505 1504 1502 1502 1503 1505 1506 1504 1503 1504 1505 1506 1507 1510 1513 1516 1518 1521 1524 1527 1531 1534 1537 1540 1543 1546 1548 1550 1551 1553 1554 1555 1555 1555 1555 1555 1554 1554 1554 1554 1554 1555 1556 1556 1556 1557 1557 1557
1505 1509 1512 1504 1503 1503 1509 1510 1503 1503 1505 1506 1507 1508 1510 1513 1516 1519 1522 1524 1528 1531 1533 1536 1540 1542 1545 1548 1549 1551 1553 1554 1555 1555 1555 1555 1554 1553 1553 1553 1553 1554 1554 1555 1555 1555 1556 1556 1556
1511 1516 1513 1506 1502 1503 1507 1508 1503 1504 1505 1506 1507 1509 1510 1512 1515 1518 1521 1524 1527 1530 1533 1536 1539 1542 1545 1547 1549 1551 1553 1554 1554 1555 1555 1554 1554 1553 1553 1553 1552 1553 1553 1554 1554 1554 1554 1555 1555
1515 1514 1511 1508 1502 1504 1507 1506 1504 1504 1505 1506 1507 1509 1510 1512 1514 1517 1520 1523 1526 1529 1532 1535 1539 1542 1544 1547 1549 1551 1552 1553 1554 1554 1554 1554 1554 1553 1552 1552 1552 1552 1552 1553 1553 1553 1553 1553 1553
1504 1508 1510 1505 1501 1504 1507 1506 1504 1503 1505 1506 1507 1508 1509 1511 1513 1516 1518 1521 1525 1528 1531 1534 1538 1541 1543 1546 1548 1550 1551 1552 1553 1554 1554 1554 1554 1553 1552 1552 1552 1551 1552 1552 1552 1552 1552 1552 1552
1503 1507 1507 1504 1502 1504 1507 1506 1503 1502 1503 1504 1505 1506 1507 1509 1511 1513 1516 1520 1523 1525 1530 1534 1537 1541 1543 1546 1548 1550 1551 1552 1552 1553 1553 1554 1554 1553 1553 1552 1552 1551 1551 1551 1551 1551 1551 1551 1551
1502 1505 1504 1506 1505 1506 1507 1509 1505 1502 1503 1503 1504 1504 1506 1507 1509 1512 1515 1518 1522 1526 1529 1533 1537 1540 1543 1545 1547 1549 1550 1551 1551 1552 1553 1553 1553 1553 1553 1552 1552 1551 1551 1551 1551 1551 1550 1550 1550
1504 1497 1498 1504 1512 1518 1515 1523 1508 1504 1503 1501 1502 1503 1504 1506 1508 1511 1514 1516 1520 1524 1528 1532 1536 1539 1542 1544 1546 1547 1548 1549 1550 1551 1552 1552 1552 1552 1552 1552 1552 1551 1551 1550 1550 1550 1550 1550 1550
1498 1497 1501 1507 1514 1520 1519 1523 1515 1505 1504 1500 1499 1500 1502 1504 1506 1509 1512 1515 1519 1523 1528 1532 1535 1538 1541 1543 1545 1546 1547 1548 1549 1550 1550 1550 1551 1551 1551 1551 1551 1551 1551 1550 1550 1550 1549 1549 1549
1495 1501 1507 1516 1522 1528 1521 1525 1519 1507 1500 1496 1495 1497 1499 1502 1505 1507 1510 1514 1518 1522 1527 1530 1534 1537 1540 1542 1544 1545 1546 1547 1547 1548 1548 1549 1549 1549 1550 1550 1550 1550 1550 1550 1549 1549 1549 1549 1548
1498 1512 1528 1529 1536 1531 1520 1522 1515 1495 1491 1491 1491 1494 1497 1500 1503 1506 1509 1513 1517 1520 1524 1528 1531 1535 1538 1540 1542 1543 1544 1545 1546 1546 1546 1547 1547 1547 1548 1548 1549 1549 1549 1549 1548 1548 1548 1548 1548
1499 1507 1527 1535 1537 1531 1520 1520 1503 1489 1487 1488 1489 1492 1495 1498 1501 1504 1508 1511 1515 1518 1522 1526 1529 1532 1535 1538 1540 1541 1542 1543 1544 1544 1544 1544 1545 1545 1546 1546 1547 1547 1547 1547 1547 1547 1547 1546 1546
1500 1506 1508 1524 1528 1532 1523 1512 1496 1487 1487 1488 1489 1492 1494 1496 1500 1503 1506 1510 1513 1516 1520 1523 1527 1530 1533 1535 1537 1538 1540 1540 1541 1541 1542 1542 1543 1543 1544 1544 1545 1545 1545 1545 1545 1545 1545 1545 1544
1492 1502 1515 1524 1532 1534 1524 1516 1508 1492 1489 1488 1489 1490 1491 1495 1498 1501 1504 1507 1511 1514 1518 1521 1524 1527 1530 1532 1534 1535 1537 1538 1538 1539 1539 1540 1540 1541 1541 1542 1542 1542 1543 1543 1543 1543 1542 1542 1542
1497 1504 1513 1524 1525 1534 1533 1519 1492 1488 1485 1485 1485 1486 1488 1492 1495 1498 1501 1505 1508 1512 1515 1518 1521 1524 1526 1528 1530 1532 1533 1534 1535 1536 1536 1537 1537 1538 1538 1539 1539 1540 1540 1540 1540 1540 1539 1539 1539
1490 1497 1508 1518 1522 1528 1530 1517 1483 1482 1480 1481 1482 1483 1486 1489 1492 1495 1498 1502 1505 1508 1511 1514 1517 1520 1522 1524 1526 1528 1530 1531 1531 1532 1533 1534 1534 1535 1536 1536 1536 1537 1537 1537 1537 1536 1536 1536 1535